Location: Rounton
(54.4000°N, 1.3500°W)
Time: 06:29:53
(UTC+01:00)

Tiros 1 despin weight - Visible Passes

Search period start: 28 September 2022 00:00
Search period end: 08 October 2022 00:00
Orbit: 590 x 639 km, 48.2° (Epoch: 23 September)

Date Brightness Start Highest point End Pass type
(mag) Time Alt. Az. Time Alt. Az. Time Alt. Az.
28 Sep ? 19:59:44 10° SW 20:03:43 30° SSE 20:06:23 17° ESE visible
28 Sep ? 21:40:20 10° WSW 21:43:21 32° SW 21:43:21 32° SW visible
29 Sep ? 20:14:42 10° SW 20:18:52 35° S 20:21:01 23° ESE visible
29 Sep ? 21:55:35 10° WSW 21:58:00 26° SW 21:58:00 26° SW visible
30 Sep ? 20:29:49 10° WSW 20:34:04 38° S 20:35:38 29° SE visible
30 Sep ? 22:10:56 10° WSW 22:12:36 19° WSW 22:12:36 19° WSW visible
01 Oct ? 20:45:01 10° WSW 20:49:15 38° S 20:50:13 34° SSE visible
01 Oct ? 22:26:23 10° WSW 22:27:11 14° WSW 22:27:11 14° WSW visible
02 Oct ? 19:19:21 10° WSW 19:23:30 36° S 19:27:44 10° ESE visible
02 Oct ? 21:00:18 10° WSW 21:04:25 34° SSW 21:04:48 33° S visible
03 Oct ? 19:34:28 10° WSW 19:38:41 38° S 19:42:25 13° ESE visible
03 Oct ? 21:15:39 10° WSW 21:19:24 28° SSW 21:19:24 28° SSW visible
04 Oct ? 19:49:42 10° WSW 19:53:52 37° S 19:57:02 16° SE visible
04 Oct ? 21:31:09 10° WSW 21:34:00 21° SW 21:34:00 21° SW visible
05 Oct ? 20:05:00 10° WSW 20:09:01 32° SSW 20:11:40 18° SE visible
05 Oct ? 21:46:59 10° WSW 21:48:38 14° SW 21:48:38 14° SW visible
06 Oct ? 20:20:23 10° WSW 20:24:08 26° SSW 20:26:20 18° SSE visible
07 Oct ? 18:54:22 10° WSW 18:58:28 35° S 19:02:38 10° SE visible
07 Oct ? 20:35:57 10° WSW 20:39:10 19° SSW 20:41:04 15° S visible
